| time (UTC) | temp C | wind direction | speed KPH | gust KPH | rain 1hr cm | rain 24hr cm | rain mn cm | humidity % | barometer mb |
| 20260504081225 | 12 | 32 | 0.0 | 0.0 | 0.00 | 0.00 | 0.00 | 82 | 1010.5 |
| 20260504080733 | 12 | 32 | 0.0 | 0.0 | 0.00 | 0.00 | 0.00 | 82 | 1010.6 |
| 20260504080240 | 13 | 32 | 0.0 | 0.0 | 0.00 | 0.00 | 0.00 | 81 | 1010.5 |
| 20260504070237 | 14 | 83 | 0.0 | 0.0 | 0.00 | 0.00 | 0.00 | 76 | 1010.8 |
| 20260504060222 | 16 | 83 | 0.0 | 3.2 | 0.00 | 0.00 | 0.00 | 71 | 1010.7 |
| 20260504050303 | 18 | 83 | 0.0 | 0.0 | 0.00 | 0.00 | 0.00 | 61 | 1010.6 |
| 20260504045722 | 18 | 83 | 0.0 | 3.2 | 0.00 | 0.00 | 0.00 | 62 | 1010.7 |
| 20260504045230 | 18 | 83 | 0.0 | 3.2 | 0.00 | 0.00 | 0.00 | 60 | 1010.7 |
| 20260504044738 | 18 | 83 | 0.0 | 0.0 | 0.00 | 0.00 | 0.00 | 59 | 1010.6 |
| 20260504044226 | 19 | 83 | 0.0 | 1.6 | 0.00 | 0.00 | 0.00 | 59 | 1010.7 |
| 20260504043734 | 20 | 83 | 1.6 | 1.6 | 0.00 | 0.00 | 0.00 | 57 | 1010.7 |
| 20260504043222 | 20 | 309 | 0.0 | 0.0 | 0.00 | 0.00 | 0.00 | 55 | 1010.6 |
| 20260504042808 | 20 | 309 | 0.0 | 0.0 | 0.00 | 0.00 | 0.00 | 54 | 1010.6 |
| 20260504042224 | 20 | 309 | 0.0 | 3.2 | 0.00 | 0.00 | 0.00 | 54 | 1010.7 |
| 20260504041732 | 20 | 309 | 0.0 | 3.2 | 0.00 | 0.00 | 0.00 | 53 | 1010.7 |
| 20260504041259 | 20 | 259 | 0.0 | 3.2 | 0.00 | 0.00 | 0.00 | 53 | 1010.6 |
| 20260504040736 | 21 | 250 | 1.6 | 3.2 | 0.00 | 0.00 | 0.00 | 51 | 1010.5 |
| 20260504040224 | 21 | 291 | 1.6 | 4.8 | 0.00 | 0.00 | 0.00 | 51 | 1010.6 |
| 20260504035735 | 21 | 313 | 1.6 | 4.8 | 0.00 | 0.00 | 0.00 | 51 | 1010.6 |
| 20260504035223 | 21 | 292 | 1.6 | 3.2 | 0.00 | 0.00 | 0.00 | 50 | 1010.6 |
| 20260504034809 | 21 | 290 | 1.6 | 3.2 | 0.00 | 0.00 | 0.00 | 49 | 1010.6 |
| 20260504034226 | 21 | 270 | 1.6 | 3.2 | 0.00 | 0.00 | 0.00 | 49 | 1010.5 |
| 20260504033734 | 21 | 320 | 0.0 | 3.2 | 0.00 | 0.00 | 0.00 | 49 | 1010.4 |
| 20260504033301 | 21 | 306 | 0.0 | 3.2 | 0.00 | 0.00 | 0.00 | 48 | 1010.4 |
| 20260504032737 | 22 | 284 | 0.0 | 0.0 | 0.00 | 0.00 | 0.00 | 47 | 1010.4 |
| 20260504032304 | 22 | 298 | 0.0 | 3.2 | 0.00 | 0.00 | 0.00 | 47 | 1010.3 |
| 20260504031721 | 22 | 327 | 0.0 | 4.8 | 0.00 | 0.00 | 0.00 | 46 | 1010.5 |
| 20260504031229 | 22 | 330 | 1.6 | 6.4 | 0.00 | 0.00 | 0.00 | 46 | 1010.5 |
| 20260504030737 | 22 | 317 | 1.6 | 6.4 | 0.00 | 0.00 | 0.00 | 45 | 1010.4 |
| 20260504030224 | 22 | 312 | 1.6 | 8.0 | 0.00 | 0.00 | 0.00 | 44 | 1010.3 |
| 20260504025810 | 23 | 325 | 3.2 | 12.9 | 0.00 | 0.00 | 0.00 | 44 | 1010.3 |
| 20260504025227 | 23 | 327 | 6.4 | 12.9 | 0.00 | 0.00 | 0.00 | 43 | 1010.3 |
| 20260504024739 | 23 | 325 | 3.2 | 12.9 | 0.00 | 0.00 | 0.00 | 43 | 1010.2 |
| 20260504024227 | 23 | 297 | 3.2 | 12.9 | 0.00 | 0.00 | 0.00 | 42 | 1010.1 |
| 20260504023755 | 23 | 302 | 3.2 | 6.4 | 0.00 | 0.00 | 0.00 | 42 | 1010.2 |
| 20260504023723 | 23 | 302 | 3.2 | 6.4 | 0.00 | 0.00 | 0.00 | 42 | 1010.2 |
| 20260504023231 | 24 | 295 | 1.6 | 6.4 | 0.00 | 0.00 | 0.00 | 42 | 1010.3 |
| 20260504022758 | 24 | 340 | 1.6 | 6.4 | 0.00 | 0.00 | 0.00 | 42 | 1010.2 |
| 20260504022235 | 25 | 302 | 1.6 | 6.4 | 0.00 | 0.00 | 0.00 | 41 | 1010.2 |
| 20260504021723 | 25 | 300 | 3.2 | 12.9 | 0.00 | 0.00 | 0.00 | 40 | 1010.3 |
| 20260504021231 | 25 | 9 | 4.8 | 12.9 | 0.00 | 0.00 | 0.00 | 40 | 1010.4 |
| 20260504020739 | 25 | 317 | 4.8 | 16.1 | 0.00 | 0.00 | 0.00 | 40 | 1010.3 |
| 20260504020227 | 25 | 344 | 4.8 | 16.1 | 0.00 | 0.00 | 0.00 | 40 | 1010.3 |
| 20260504015734 | 26 | 304 | 6.4 | 16.1 | 0.00 | 0.00 | 0.00 | 39 | 1010.4 |
| 20260504015226 | 26 | 329 | 8.0 | 16.1 | 0.00 | 0.00 | 0.00 | 38 | 1010.5 |
| 20260504014754 | 27 | 343 | 1.6 | 9.7 | 0.00 | 0.00 | 0.00 | 39 | 1010.5 |
| 20260504014722 | 27 | 343 | 1.6 | 9.7 | 0.00 | 0.00 | 0.00 | 39 | 1010.5 |
| 20260504014306 | 27 | 336 | 1.6 | 11.3 | 0.00 | 0.00 | 0.00 | 39 | 1010.5 |
| 20260504013727 | 27 | 18 | 3.2 | 12.9 | 0.00 | 0.00 | 0.00 | 38 | 1010.5 |
| 20260504013234 | 27 | 325 | 4.8 | 12.9 | 0.00 | 0.00 | 0.00 | 38 | 1010.5 |
| 20260504012721 | 27 | 308 | 4.8 | 9.7 | 0.00 | 0.00 | 0.00 | 38 | 1010.6 |
| 20260504012229 | 27 | 5 | 1.6 | 11.3 | 0.00 | 0.00 | 0.00 | 38 | 1010.8 |
| 20260504011737 | 27 | 324 | 4.8 | 11.3 | 0.00 | 0.00 | 0.00 | 37 | 1010.8 |
| 20260504011305 | 27 | 329 | 1.6 | 9.7 | 0.00 | 0.00 | 0.00 | 38 | 1010.8 |
| 20260504010722 | 27 | 316 | 3.2 | 12.9 | 0.00 | 0.00 | 0.00 | 38 | 1010.8 |
| 20260504010230 | 27 | 339 | 3.2 | 12.9 | 0.00 | 0.00 | 0.00 | 38 | 1010.9 |
| 20260504005737 | 27 | 316 | 4.8 | 12.9 | 0.00 | 0.00 | 0.00 | 38 | 1010.9 |
| 20260504005225 | 27 | 326 | 4.8 | 9.7 | 0.00 | 0.00 | 0.00 | 38 | 1010.9 |
| 20260504004737 | 27 | 60 | 3.2 | 9.7 | 0.00 | 0.00 | 0.00 | 38 | 1010.9 |
| 20260504004304 | 27 | 277 | 1.6 | 14.5 | 0.00 | 0.00 | 0.00 | 38 | 1011.0 |
| 20260504003721 | 27 | 289 | 6.4 | 14.5 | 0.00 | 0.00 | 0.00 | 37 | 1011.1 |
| 20260504003229 | 27 | 290 | 1.6 | 9.7 | 0.00 | 0.00 | 0.00 | 38 | 1011.2 |
| 20260504002756 | 27 | 316 | 4.8 | 9.7 | 0.00 | 0.00 | 0.00 | 38 | 1011.2 |
| 20260504002724 | 27 | 316 | 4.8 | 9.7 | 0.00 | 0.00 | 0.00 | 38 | 1011.2 |
| 20260504002232 | 27 | 319 | 4.8 | 11.3 | 0.00 | 0.00 | 0.00 | 38 | 1011.2 |
| 20260504001740 | 27 | 301 | 3.2 | 11.3 | 0.00 | 0.00 | 0.00 | 40 | 1011.4 |
| 20260504001228 | 27 | 323 | 3.2 | 16.1 | 0.00 | 0.00 | 0.00 | 39 | 1011.4 |
| 20260504000756 | 27 | 263 | 4.8 | 16.1 | 0.00 | 0.00 | 0.00 | 39 | 1011.4 |
| 20260504000234 | 27 | 287 | 4.8 | 16.1 | 0.00 | 0.00 | 0.00 | 39 | 1011.5 |
| 20260503235740 | 27 | 311 | 3.2 | 17.7 | 0.00 | 0.00 | 0.00 | 38 | 1011.5 |
| 20260503235228 | 27 | 272 | 8.0 | 17.7 | 0.00 | 0.00 | 0.00 | 38 | 1011.7 |
| 20260503234736 | 27 | 323 | 4.8 | 14.5 | 0.00 | 0.00 | 0.00 | 39 | 1011.8 |
| 20260503234228 | 27 | 316 | 4.8 | 14.5 | 0.00 | 0.00 | 0.00 | 39 | 1011.8 |
| 20260503233756 | 27 | 348 | 6.4 | 14.5 | 0.00 | 0.00 | 0.00 | 38 | 1011.9 |
| 20260503233232 | 27 | 327 | 4.8 | 11.3 | 0.00 | 0.00 | 0.00 | 38 | 1011.9 |
| 20260503232739 | 27 | 294 | 4.8 | 16.1 | 0.00 | 0.00 | 0.00 | 39 | 1011.9 |
| 20260503232227 | 27 | 294 | 3.2 | 16.1 | 0.00 | 0.00 | 0.00 | 40 | 1011.9 |
| 20260503231735 | 27 | 326 | 6.4 | 16.1 | 0.00 | 0.00 | 0.00 | 39 | 1011.9 |
| 20260503231223 | 27 | 341 | 8.0 | 16.1 | 0.00 | 0.00 | 0.00 | 38 | 1011.9 |
| 20260503230731 | 27 | 305 | 4.8 | 14.5 | 0.00 | 0.00 | 0.00 | 39 | 1012.0 |
| 20260503230239 | 27 | 337 | 4.8 | 16.1 | 0.00 | 0.00 | 0.00 | 39 | 1012.1 |
| 20260503225726 | 27 | 338 | 8.0 | 17.7 | 0.00 | 0.00 | 0.00 | 38 | 1012.1 |
| 20260503225238 | 27 | 300 | 8.0 | 17.7 | 0.00 | 0.00 | 0.00 | 40 | 1012.2 |
| 20260503224726 | 27 | 42 | 4.8 | 14.5 | 0.00 | 0.00 | 0.00 | 39 | 1012.3 |
| 20260503224254 | 27 | 301 | 6.4 | 14.5 | 0.00 | 0.00 | 0.00 | 37 | 1012.4 |
| 20260503224222 | 27 | 301 | 6.4 | 14.5 | 0.00 | 0.00 | 0.00 | 37 | 1012.4 |
| 20260503223730 | 28 | 355 | 3.2 | 9.7 | 0.00 | 0.00 | 0.00 | 38 | 1012.5 |
| 20260503223238 | 28 | 287 | 1.6 | 9.7 | 0.00 | 0.00 | 0.00 | 40 | 1012.5 |
| 20260503222725 | 27 | 360 | 4.8 | 14.5 | 0.00 | 0.00 | 0.00 | 38 | 1012.6 |
| 20260503222253 | 27 | 342 | 8.0 | 14.5 | 0.00 | 0.00 | 0.00 | 38 | 1012.6 |
| 20260503221730 | 27 | 311 | 3.2 | 12.9 | 0.00 | 0.00 | 0.00 | 38 | 1012.6 |
| 20260503221238 | 27 | 22 | 4.8 | 12.9 | 0.00 | 0.00 | 0.00 | 38 | 1012.7 |
| 20260503220806 | 27 | 309 | 4.8 | 9.7 | 0.00 | 0.00 | 0.00 | 39 | 1012.7 |
| 20260503220303 | 27 | 331 | 4.8 | 9.7 | 0.00 | 0.00 | 0.00 | 40 | 1012.7 |
| 20260503220231 | 27 | 331 | 4.8 | 9.7 | 0.00 | 0.00 | 0.00 | 40 | 1012.7 |
| 20260503215737 | 27 | 333 | 4.8 | 9.7 | 0.00 | 0.00 | 0.00 | 39 | 1012.8 |
| 20260503215225 | 27 | 15 | 3.2 | 12.9 | 0.00 | 0.00 | 0.00 | 40 | 1012.8 |
| 20260503214753 | 27 | 308 | 3.2 | 6.4 | 0.00 | 0.00 | 0.00 | 40 | 1012.9 |
| 20260503214309 | 27 | 288 | 3.2 | 14.5 | 0.00 | 0.00 | 0.00 | 40 | 1012.9 |
| 20260503213726 | 26 | 323 | 4.8 | 14.5 | 0.00 | 0.00 | 0.00 | 41 | 1012.9 |
| 20260503213254 | 26 | 313 | 6.4 | 12.9 | 0.00 | 0.00 | 0.00 | 40 | 1013.1 |
| 20260503213222 | 26 | 313 | 6.4 | 12.9 | 0.00 | 0.00 | 0.00 | 40 | 1013.1 |
| 20260503212809 | 26 | 327 | 3.2 | 14.5 | 0.00 | 0.00 | 0.00 | 40 | 1013.0 |
| 20260503212305 | 26 | 232 | 4.8 | 16.1 | 0.00 | 0.00 | 0.00 | 40 | 1013.1 |
| 20260503212233 | 26 | 232 | 4.8 | 16.1 | 0.00 | 0.00 | 0.00 | 40 | 1013.1 |
| 20260503211725 | 26 | 329 | 4.8 | 14.5 | 0.00 | 0.00 | 0.00 | 40 | 1013.3 |
| 20260503211233 | 26 | 315 | 4.8 | 14.5 | 0.00 | 0.00 | 0.00 | 40 | 1013.4 |
| 20260503210721 | 26 | 300 | 3.2 | 6.4 | 0.00 | 0.00 | 0.00 | 40 | 1013.4 |
| 20260503210229 | 26 | 42 | 1.6 | 14.5 | 0.00 | 0.00 | 0.00 | 41 | 1013.4 |
| 20260503205736 | 26 | 32 | 4.8 | 14.5 | 0.00 | 0.00 | 0.00 | 42 | 1013.5 |
| 20260503205224 | 26 | 297 | 6.4 | 9.7 | 0.00 | 0.00 | 0.00 | 41 | 1013.5 |
| 20260503204812 | 26 | 20 | 3.2 | 9.7 | 0.00 | 0.00 | 0.00 | 41 | 1013.6 |
| 20260503204740 | 26 | 20 | 3.2 | 9.7 | 0.00 | 0.00 | 0.00 | 41 | 1013.6 |
| 20260503204307 | 26 | 9 | 3.2 | 8.0 | 0.00 | 0.00 | 0.00 | 42 | 1013.6 |
| 20260503203804 | 26 | 52 | 1.6 | 11.3 | 0.00 | 0.00 | 0.00 | 42 | 1013.6 |
| 20260503203732 | 26 | 52 | 1.6 | 11.3 | 0.00 | 0.00 | 0.00 | 42 | 1013.6 |
| 20260503203240 | 26 | 50 | 3.2 | 12.9 | 0.00 | 0.00 | 0.00 | 42 | 1013.6 |
| 20260503202807 | 25 | 43 | 3.2 | 12.9 | 0.00 | 0.00 | 0.00 | 42 | 1013.8 |
| 20260503202224 | 25 | 292 | 3.2 | 8.0 | 0.00 | 0.00 | 0.00 | 43 | 1013.8 |
| 20260503201732 | 25 | 355 | 4.8 | 16.1 | 0.00 | 0.00 | 0.00 | 43 | 1013.8 |
| 20260503201240 | 25 | 328 | 6.4 | 16.1 | 0.00 | 0.00 | 0.00 | 45 | 1013.8 |
| 20260503200732 | 25 | 312 | 3.2 | 16.1 | 0.00 | 0.00 | 0.00 | 45 | 1013.9 |
| 20260503200239 | 24 | 331 | 4.8 | 16.1 | 0.00 | 0.00 | 0.00 | 45 | 1014.0 |
| 20260503195726 | 24 | 38 | 6.4 | 16.1 | 0.00 | 0.00 | 0.00 | 46 | 1014.1 |
| 20260503195233 | 24 | 294 | 6.4 | 16.1 | 0.00 | 0.00 | 0.00 | 46 | 1014.2 |
| 20260503194721 | 24 | 321 | 4.8 | 14.5 | 0.00 | 0.00 | 0.00 | 46 | 1014.3 |
| 20260503194229 | 25 | 317 | 4.8 | 14.5 | 0.00 | 0.00 | 0.00 | 45 | 1014.4 |
| 20260503193737 | 25 | 69 | 4.8 | 11.3 | 0.00 | 0.00 | 0.00 | 46 | 1014.4 |
| 20260503193225 | 25 | 319 | 3.2 | 11.3 | 0.00 | 0.00 | 0.00 | 47 | 1014.5 |
| 20260503192732 | 24 | 313 | 3.2 | 8.0 | 0.00 | 0.00 | 0.00 | 48 | 1014.5 |
| 20260503192300 | 23 | 75 | 1.6 | 16.1 | 0.00 | 0.00 | 0.00 | 50 | 1014.5 |
| 20260503192228 | 23 | 75 | 1.6 | 16.1 | 0.00 | 0.00 | 0.00 | 50 | 1014.5 |
| 20260503191736 | 23 | 267 | 4.8 | 16.1 | 0.00 | 0.00 | 0.00 | 50 | 1014.7 |
| 20260503191228 | 23 | 346 | 3.2 | 14.5 | 0.00 | 0.00 | 0.00 | 49 | 1014.6 |
| 20260503190736 | 23 | 243 | 4.8 | 12.9 | 0.00 | 0.00 | 0.00 | 49 | 1014.7 |
| 20260503190224 | 23 | 346 | 4.8 | 12.9 | 0.00 | 0.00 | 0.00 | 49 | 1014.7 |
| 20260503185731 | 23 | 265 | 3.2 | 11.3 | 0.00 | 0.00 | 0.00 | 50 | 1014.7 |
| 20260503185239 | 23 | 325 | 1.6 | 11.3 | 0.00 | 0.00 | 0.00 | 52 | 1014.7 |
| 20260503184807 | 22 | 298 | 1.6 | 9.7 | 0.00 | 0.00 | 0.00 | 52 | 1014.8 |
| 20260503184224 | 22 | 320 | 6.4 | 9.7 | 0.00 | 0.00 | 0.00 | 51 | 1014.9 |
| 20260503183811 | 22 | 277 | 6.4 | 11.3 | 0.00 | 0.00 | 0.00 | 53 | 1015.0 |
| 20260503183228 | 23 | 318 | 3.2 | 8.0 | 0.00 | 0.00 | 0.00 | 52 | 1014.9 |
| 20260503182735 | 23 | 331 | 1.6 | 6.4 | 0.00 | 0.00 | 0.00 | 54 | 1014.9 |
| 20260503182223 | 22 | 355 | 1.6 | 6.4 | 0.00 | 0.00 | 0.00 | 53 | 1015.0 |
| 20260503181736 | 22 | 33 | 1.6 | 6.4 | 0.00 | 0.00 | 0.00 | 53 | 1015.1 |
| 20260503181223 | 22 | 24 | 1.6 | 12.9 | 0.00 | 0.00 | 0.00 | 55 | 1015.0 |
| 20260503180810 | 22 | 327 | 3.2 | 12.9 | 0.00 | 0.00 | 0.00 | 53 | 1015.0 |
| 20260503180227 | 21 | 338 | 3.2 | 6.4 | 0.00 | 0.00 | 0.00 | 55 | 1015.0 |
| 20260503175734 | 21 | 78 | 3.2 | 8.0 | 0.00 | 0.00 | 0.00 | 54 | 1014.9 |
| 20260503175222 | 21 | 341 | 3.2 | 9.7 | 0.00 | 0.00 | 0.00 | 54 | 1015.1 |
| 20260503174730 | 21 | 11 | 3.2 | 9.7 | 0.00 | 0.00 | 0.00 | 54 | 1015.0 |
| 20260503174238 | 21 | 333 | 3.2 | 9.7 | 0.00 | 0.00 | 0.00 | 53 | 1015.3 |
| 20260503173726 | 21 | 355 | 3.2 | 8.0 | 0.00 | 0.00 | 0.00 | 54 | 1015.1 |
| 20260503173234 | 21 | 304 | 3.2 | 8.0 | 0.00 | 0.00 | 0.00 | 53 | 1015.2 |
| 20260503172725 | 21 | 243 | 3.2 | 8.0 | 0.00 | 0.00 | 0.00 | 54 | 1015.3 |
| 20260503172233 | 21 | 317 | 3.2 | 6.4 | 0.00 | 0.00 | 0.00 | 55 | 1015.3 |
| 20260503171721 | 21 | 288 | 1.6 | 8.0 | 0.00 | 0.00 | 0.00 | 56 | 1015.2 |
| 20260503171309 | 20 | 360 | 1.6 | 6.4 | 0.00 | 0.00 | 0.00 | 55 | 1015.4 |
| 20260503170724 | 20 | 313 | 3.2 | 6.4 | 0.00 | 0.00 | 0.00 | 56 | 1015.3 |
| 20260503170232 | 20 | 51 | 1.6 | 6.4 | 0.00 | 0.00 | 0.00 | 58 | 1015.2 |
| 20260503150722 | 17 | 88 | 0.0 | 0.0 | 0.00 | 0.00 | 0.00 | 71 | 1015.3 |
| 20260503150234 | 16 | 88 | 0.0 | 0.0 | 0.00 | 0.00 | 0.00 | 75 | 1015.2 |
| 20260503140300 | 11 | 88 | 0.0 | 0.0 | 0.00 | 0.00 | 0.00 | 86 | 1015.0 |
| 20260503131240 | 9 | 88 | 0.0 | 3.2 | 0.00 | 0.00 | 0.00 | 90 | 1015.1 |
| 20260503130732 | 9 | 88 | 0.0 | 3.2 | 0.00 | 0.00 | 0.00 | 89 | 1015.1 |
| 20260503130240 | 9 | 88 | 0.0 | 1.6 | 0.00 | 0.00 | 0.00 | 90 | 1015.1 |
| 20260503110739 | 10 | 165 | 0.0 | 0.0 | 0.00 | 0.00 | 0.00 | 86 | 1015.2 |
| 20260503110227 | 10 | 164 | 0.0 | 0.0 | 0.00 | 0.00 | 0.00 | 86 | 1015.1 |
| 20260503090233 | 11 | 165 | 0.0 | 0.0 | 0.00 | 0.00 | 0.00 | 81 | 1015.6 |